Weather History for PHHI - January, 2013

Change the Weather History Date:

Thursday, January 17, 2013

  Actual Average (PHNL) Record (PHNL)
Temperature  
Mean Temperature 68 °F 73 °F  
Max Temperature 78 °F 80 °F 85 °F (1996)
Min Temperature 59 °F 66 °F 57 °F (2003)
Degree Days  
Heating Degree Days 0 0  
Month to date heating degree days 0  
Since 1 July heating degree days 0  
Cooling Degree Days 4 8  
Month to date cooling degree days 138  
Year to date cooling degree days 138  
Growing Degree Days 18 (Base 50)    
Moisture  
Dew Point 58 °F    
Average Humidity 77    
Maximum Humidity 92    
Minimum Humidity 44    
Precipitation  
Precipitation 0.00 in 0.06 in 2.23 in (1892)
Month to date precipitation 1.43  
Year to date precipitation 1.43  
Snow  
Snow 0.00 in - - ()
Month to date snowfall  
Since 1 July snowfall  
Snow Depth -    
Sea Level Pressure  
Sea Level Pressure 29.88 in    
Wind  
Wind Speed 5 mph (NNW)    
Max Wind Speed 13 mph    
Max Gust Speed 17 mph    
Visibility 10 miles    
Events Rain    
T = Trace of Precipitation, MM = Missing Value Source: NWS Daily Summary

Daily Weather History Graph

Daily Weather History Graph

Search for Another Location

Airport or City:

Trip Planner

Search our weather history database for the weather conditions in past years. The results will help you decide how hot, cold, wet, or windy it might be!

Date:

Astronomy

Jan. 17, 2013 Rise Set
Actual Time 7:12 AM HST 6:12 PM HST
Civil Twilight 6:48 AM HST 6:36 PM HST
Nautical Twilight 6:21 AM HST 7:03 PM HST
Astronomical Twilight 5:54 AM HST 7:30 PM HST
Moon 11:20 AM HST (1/17) No Moon Set
Length of Visible Light 11h 47m
Length of Day
10h 59m
Waxing Crescent, 39% of the Moon is Illuminated
Jan 17
Waxing Crescent
Jan 18
First Quarter
Jan 26
Full
Feb 3
Last Quarter
Feb 9
New

Hourly Weather History & Observations

Time (HST) Temp. Dew Point Humidity Pressure Visibility Wind Dir Wind Speed Gust Speed Precip Events Conditions
12:17 AM 64.4 °F 60.8 °F 88% 29.88 in 10.0 mi NW 5.8 mph - N/A   Mostly Cloudy
12:20 AM 64.4 °F 60.8 °F 88% 29.88 in 10.0 mi NW 5.8 mph - N/A   Mostly Cloudy
12:55 AM 63.3 °F 61.0 °F 92% 29.88 in 10.0 mi NW 3.5 mph - N/A   Overcast
1:55 AM 63.3 °F 60.8 °F 91% 29.87 in 10.0 mi Calm Calm - N/A   Overcast
2:55 AM 62.6 °F 60.3 °F 92% 29.85 in 10.0 mi NNW 4.6 mph - N/A   Clear
3:55 AM 61.2 °F 57.9 °F 89% 29.84 in 10.0 mi NNW 4.6 mph - N/A   Clear
4:55 AM 60.3 °F 57.4 °F 90% 29.85 in 10.0 mi NNW 4.6 mph - N/A   Clear
5:55 AM 59.9 °F 57.0 °F 90% 29.86 in 10.0 mi NNW 4.6 mph - N/A   Clear
6:55 AM 59.4 °F 56.8 °F 91% 29.87 in 10.0 mi NNW 3.5 mph - N/A   Clear
7:55 AM 60.6 °F 58.1 °F 91% 29.89 in 10.0 mi North 3.5 mph - N/A   Clear
8:55 AM 65.3 °F 60.8 °F 85% 29.90 in 10.0 mi Calm Calm - N/A   Clear
9:55 AM 68.9 °F 60.8 °F 75% 29.91 in 10.0 mi NNW 6.9 mph 17.3 mph N/A   Clear
10:03 AM 69.8 °F 60.8 °F 73% 29.91 in 10.0 mi NNW 6.9 mph - N/A Rain Light Rain
10:13 AM 69.8 °F 60.8 °F 73% 29.91 in - North 4.6 mph - N/A   Clear
10:21 AM 69.8 °F 60.8 °F 73% 29.91 in - North 5.8 mph - N/A Rain Light Rain
10:55 AM 78.8 °F 55.4 °F 44% 29.92 in 10.0 mi NW 6.9 mph - N/A   Mostly Cloudy
11:55 AM 77.0 °F 59.0 °F 54% 29.92 in 10.0 mi Variable 3.5 mph - N/A   Mostly Cloudy
12:55 PM 78.8 °F 55.4 °F 44% 29.87 in 10.0 mi Variable 6.9 mph - N/A   Mostly Cloudy
1:55 PM 71.2 °F 59.2 °F 66% 29.83 in 10.0 mi North 12.7 mph - N/A   Overcast
2:55 PM 72.5 °F 56.1 °F 56% 29.81 in 10.0 mi NW 11.5 mph - N/A   Overcast
3:55 PM 71.4 °F 56.7 °F 60% 29.82 in 10.0 mi NW 9.2 mph - N/A   Clear
4:55 PM 70.3 °F 56.1 °F 61% 29.84 in 10.0 mi NNW 11.5 mph - N/A   Clear
5:55 PM 68.2 °F 56.5 °F 66% 29.86 in 10.0 mi North 6.9 mph - N/A   Clear
6:55 PM 65.7 °F 56.1 °F 71% 29.88 in 10.0 mi NNW 4.6 mph - N/A   Clear
7:55 PM 63.9 °F 55.9 °F 75% 29.90 in 10.0 mi NW 3.5 mph - N/A   Clear
8:55 PM 60.3 °F 55.6 °F 85% 29.91 in 10.0 mi NW 3.5 mph - N/A   Clear
9:55 PM 61.2 °F 55.9 °F 83% 29.90 in 10.0 mi NW 3.5 mph - N/A   Clear
10:55 PM 59.7 °F 55.9 °F 87% 29.92 in 10.0 mi NW 3.5 mph - N/A   Clear
11:55 PM 60.8 °F 56.8 °F 87% 29.91 in 10.0 mi NNW 3.5 mph - N/A   Clear